星链-11102 [DTC] (STARLINK-11102 [DTC] )

导读 | 星芒AI

STARLINK-11102 [DTC] 是SpaceX星链(Starlink)卫星互联网项目中的一颗低轨通信卫星。该卫星属于DTC(Direct to Cell)系列,旨在为偏远地区提供直接面向手机的宽带互联网服务,无需依赖传统地面基站。它运行在约550公里高的近地轨道,采用先进通信技术,支持高速、低延迟的数据传输。该卫星于2024年发射,是SpaceX推动全球无缝网络覆盖计划的重要组成部分。

基本信息
目录编号:
60065
目录名称:
STARLINK-11102
国际标识:
2024-113G
轨道中心:
EARTH
卫星名称:
星链-11102 [DTC]
卫星全名:
星链-11102 [DTC] (STARLINK-11102 [DTC] )
卫星状态:
在轨 (已飞行542 天)
发射日期:
2024-06-19 UTC
国别 :
美国 (US)
星等 :
--
轨道信息
数据来源 国际轨道数据
星历时间: 2025-12-13T07:16:06+0800
10小时前
查看轨道信息
半长轴: 6737.836km
偏心率: 0.0001177
轨道倾角: 53.159°
近地点辐角 38.605°
升交点赤经 258.505°
平近点角 321.505°
近地点: 358.907km
远地点: 360.495km
周期: 91.736分钟
每日圈数: 15.697198
详细信息
固有亮度:
5
最大亮度:
0.3
卫星平台:
Starlink v2.0 mini
覆盖范围:
全球
运营商:
太空探索技术公司
运营商所在国:
美国
制造商(研发单位):
太空探索技术公司
制造商所在国:
美国
使用方式:
暂无
卫星简介
星链(Starlink)计划是由太空探索技术公司(SpaceX)提出的一个巨型低轨卫星互联网星座项目,计划在2019年至2024年间在太空搭建由约1.2万颗卫星组成的“星链”网络,其中1584颗将部署在地球上空550千米处的近地轨道,并从2020年开始工作。该卫星仍在工作。
2D轨道图
3D轨道图
轨道高度分析图
轨道倾角分析图
轨道综合分析图
查看轨道综合分析图